This is the latest recevied weather packets stored in our database for station/object IZ4UFQ-10. If no packets are shown the sender has not sent any weather packets the latest 10 day(s).
| Time | Temp. | Humidity | Pressure | Rain* | Wind** | Luminosity | Snow |
|---|---|---|---|---|---|---|---|
| 1777962665 | 14.44° C | 86% | 1013.1 hPa | 5.33 mm | - | 14 W/m² | - |
| 1777962365 | 14.44° C | 85% | 1013.2 hPa | 4.57 mm | - | 11 W/m² | - |
| 1777962064 | 14.44° C | 85% | 1013.3 hPa | 4.06 mm | - | 9 W/m² | - |
| 1777961764 | 14.44° C | 83% | 1013.3 hPa | 3.05 mm | - | 7 W/m² | - |
| 1777961464 | 15° C | 83% | 1013.4 hPa | 2.29 mm | - | 5 W/m² | - |
| 1777961163 | 15° C | 82% | 1013.3 hPa | 1.52 mm | - | 5 W/m² | - |
| 1777960863 | 15° C | 81% | 1013.3 hPa | 1.02 mm | - | 5 W/m² | - |
| 1777960563 | 15° C | 80% | 1013.2 hPa | 0.51 mm | - | 5 W/m² | - |
| 1777960263 | 15° C | 78% | 1013 hPa | 0.25 mm | - | 5 W/m² | - |
| 1777959962 | 15.56° C | 77% | 1012.8 hPa | 0 mm | - | 11 W/m² | - |
| 1777959662 | 15.56° C | 76% | 1012.8 hPa | 0 mm | - | 18 W/m² | - |
| 1777959362 | 15.56° C | 76% | 1012.7 hPa | 0 mm | - | 19 W/m² | - |
| 1777959061 | 15.56° C | 75% | 1012.6 hPa | 0 mm | - | 19 W/m² | - |
| 1777958761 | 15.56° C | 75% | 1012.6 hPa | 0 mm | - | 14 W/m² | - |
| 1777958461 | 15.56° C | 75% | 1012.6 hPa | 0 mm | - | 12 W/m² | - |
| 1777958161 | 15.56° C | 75% | 1012.7 hPa | 0 mm | - | 14 W/m² | - |
| 1777957860 | 15.56° C | 75% | 1012.6 hPa | 0 mm | - | 14 W/m² | - |
| 1777957560 | 15.56° C | 75% | 1012.6 hPa | 0 mm | - | 11 W/m² | - |
| 1777957260 | 15.56° C | 74% | 1012.6 hPa | 0 mm | - | 9 W/m² | - |
| 1777956959 | 15.56° C | 74% | 1012.6 hPa | 0 mm | - | 7 W/m² | - |
| 1777956659 | 15.56° C | 73% | 1012.5 hPa | 0 mm | - | 5 W/m² | - |
| 1777956359 | 15.56° C | 73% | 1012.4 hPa | 0 mm | - | 5 W/m² | - |
| 1777956059 | 15.56° C | 72% | 1012.4 hPa | 0 mm | - | 7 W/m² | - |
| 1777955758 | 16.11° C | 71% | 1012.5 hPa | 0 mm | - | 5 W/m² | - |
| 1777955458 | 16.11° C | 70% | 1012.4 hPa | 0 mm | - | 7 W/m² | - |
* Rain latest hour (hover to see other rain measurements)
** Current wind speed in m/s (hover to see current wind gust speed)